• în România
  • Lista ţărilor
  • Pe 7 zile
  • Temperatura apei
  • Hartă satelitară
  • Meteo pe hartă
  • Widget-uri
  • user-avatar
    Intrare

    Meteo pe oră la Hlyusty

    Astăzi, 13 Noiembrie, Marţi

    Timp Temperatura Precipitaţii Vânt Presiune Umiditate
    00:00 -5°C° 0 mm 5 m/s 757 mmHg 52%
    01:00 -5°C° 0 mm 5 m/s 757 mmHg 52%
    02:00 -4°C° 0 mm 4 m/s 757 mmHg 54%
    03:00 -5°C° 0 mm 5 m/s 757 mmHg 54%
    04:00 -5°C° 0 mm 5 m/s 756 mmHg 54%
    05:00 -5°C° 0 mm 6 m/s 756 mmHg 55%
    06:00 -5°C° 0 mm 6 m/s 756 mmHg 54%
    07:00 -5°C° 0 mm 6 m/s 755 mmHg 54%
    08:00 -6°C° 0 mm 7 m/s 755 mmHg 54%
    09:00 -6°C° 0 mm 7 m/s 754 mmHg 53%
    10:00 -4°C° 0 mm 7 m/s 754 mmHg 52%
    11:00 -4°C° 0 mm 7 m/s 754 mmHg 51%
    12:00 -3°C° 0 mm 7 m/s 753 mmHg 50%
    13:00 -3°C° 0 mm 7 m/s 753 mmHg 48%
    14:00 -3°C° 0 mm 7 m/s 752 mmHg 47%
    15:00 -3°C° 0 mm 6 m/s 752 mmHg 48%
    16:00 -3°C° 0 mm 6 m/s 752 mmHg 49%
    17:00 -3°C° 0 mm 6 m/s 752 mmHg 50%
    18:00 -3°C° 0 mm 6 m/s 751 mmHg 50%
    19:00 -3°C° 0 mm 6 m/s 751 mmHg 51%
    20:00 -3°C° 0 mm 6 m/s 750 mmHg 52%
    21:00 -3°C° 0 mm 6 m/s 750 mmHg 52%
    22:00 -3°C° 0 mm 6 m/s 750 mmHg 51%
    23:00 -4°C° 0 mm 6 m/s 749 mmHg 51%

    Mâine, 14 Noiembrie, Miercuri

    Timp Temperatura Precipitaţii Vânt Presiune Umiditate
    00:00 -4°C° 0.1 mm 6 m/s 749 mmHg 53%
    01:00 -4°C° 0.1 mm 6 m/s 749 mmHg 55%
    02:00 -4°C° 0.1 mm 5 m/s 748 mmHg 56%
    03:00 -4°C° 0.3 mm 5 m/s 747 mmHg 58%
    04:00 -4°C° 0.3 mm 5 m/s 747 mmHg 59%
    05:00 -4°C° 0.3 mm 5 m/s 746 mmHg 61%
    06:00 -5°C° 0.3 mm 5 m/s 746 mmHg 64%
    07:00 -5°C° 0.3 mm 5 m/s 746 mmHg 67%
    08:00 -5°C° 0.3 mm 5 m/s 746 mmHg 71%
    09:00 -4°C° 0.4 mm 4 m/s 746 mmHg 72%
    10:00 -4°C° 0.4 mm 4 m/s 746 mmHg 74%
    11:00 -4°C° 0.4 mm 4 m/s 746 mmHg 75%
    12:00 -4°C° 0.3 mm 4 m/s 746 mmHg 75%
    13:00 -4°C° 0.3 mm 3 m/s 746 mmHg 75%
    14:00 -4°C° 0.3 mm 3 m/s 747 mmHg 75%
    15:00 -4°C° 0.2 mm 3 m/s 747 mmHg 76%
    16:00 -3°C° 0.2 mm 2 m/s 747 mmHg 77%
    17:00 -3°C° 0.2 mm 2 m/s 747 mmHg 78%
    18:00 -3°C° 0.1 mm 2 m/s 748 mmHg 79%
    19:00 -3°C° 0.1 mm 2 m/s 748 mmHg 80%
    20:00 -1°C° 0.1 mm 1 m/s 748 mmHg 81%
    21:00 -1°C° 0 mm 1 m/s 749 mmHg 82%
    22:00 -1°C° 0 mm 1 m/s 749 mmHg 83%
    23:00 -1°C° 0 mm 1 m/s 750 mmHg 84%

    Poimâine, 15 Noiembrie, Joi

    Timp Temperatura Precipitaţii Vânt Presiune Umiditate
    00:00 0°C° 0 mm 1 m/s 750 mmHg 85%
    01:00 0°C° 0 mm 1 m/s 751 mmHg 86%
    02:00 0°C° 0 mm 1 m/s 751 mmHg 87%
    03:00 0°C° 0 mm 1 m/s 751 mmHg 88%
    04:00 0°C° 0 mm 1 m/s 751 mmHg 89%
    05:00 0°C° 0 mm 1 m/s 752 mmHg 90%
    06:00 0°C° 0 mm 1 m/s 752 mmHg 91%
    07:00 0°C° 0 mm 1 m/s 753 mmHg 92%
    08:00 0°C° 0 mm 1 m/s 753 mmHg 92%
    09:00 +1°C° 0.1 mm 1 m/s 754 mmHg 91%
    10:00 +1°C° 0.1 mm 1 m/s 754 mmHg 89%
    11:00 +2°C° 0.1 mm 1 m/s 755 mmHg 88%
    12:00 +2°C° 0 mm 1 m/s 755 mmHg 88%
    13:00 +2°C° 0 mm 1 m/s 755 mmHg 88%
    14:00 +2°C° 0 mm 1 m/s 756 mmHg 89%
    15:00 +2°C° 0 mm 1 m/s 756 mmHg 91%
    16:00 +1°C° 0 mm 1 m/s 756 mmHg 93%
    17:00 +1°C° 0 mm 1 m/s 756 mmHg 95%
    18:00 +1°C° 0 mm 1 m/s 757 mmHg 96%
    19:00 +1°C° 0 mm 1 m/s 757 mmHg 96%
    20:00 0°C° 0 mm 1 m/s 757 mmHg 96%
    21:00 0°C° 0 mm 1 m/s 758 mmHg 96%
    22:00 0°C° 0 mm 1 m/s 758 mmHg 96%
    23:00 0°C° 0 mm 1 m/s 758 mmHg 96%

    16 Noiembrie, Vineri

    Timp Temperatura Precipitaţii Vânt Presiune Umiditate
    00:00 0°C° 0 mm 1 m/s 759 mmHg 96%
    01:00 +1°C° 0 mm 1 m/s 759 mmHg 96%
    02:00 +1°C° 0 mm 1 m/s 759 mmHg 96%
    03:00 +1°C° 0 mm 1 m/s 759 mmHg 96%
    04:00 +1°C° 0 mm 1 m/s 759 mmHg 96%
    05:00 +1°C° 0 mm 1 m/s 759 mmHg 96%
    06:00 +1°C° 0 mm 1 m/s 760 mmHg 96%
    07:00 +1°C° 0 mm 1 m/s 760 mmHg 96%
    08:00 +1°C° 0 mm 1 m/s 760 mmHg 96%
    09:00 +1°C° 0 mm 1 m/s 760 mmHg 94%
    10:00 +2°C° 0 mm 1 m/s 761 mmHg 93%
    11:00 +1°C° 0 mm 2 m/s 761 mmHg 91%
    12:00 +1°C° 0 mm 2 m/s 761 mmHg 91%
    13:00 +1°C° 0 mm 2 m/s 761 mmHg 91%
    14:00 +1°C° 0 mm 2 m/s 761 mmHg 92%
    15:00 +1°C° 0 mm 2 m/s 761 mmHg 93%
    16:00 +1°C° 0 mm 2 m/s 761 mmHg 94%
    17:00 -1°C° 0 mm 2 m/s 761 mmHg 95%
    18:00 -1°C° 0 mm 2 m/s 761 mmHg 95%
    19:00 -1°C° 0 mm 2 m/s 761 mmHg 95%
    20:00 -1°C° 0 mm 2 m/s 761 mmHg 95%
    21:00 -1°C° 0 mm 2 m/s 761 mmHg 95%
    22:00 -1°C° 0 mm 2 m/s 760 mmHg 95%
    23:00 -2°C° 0 mm 2 m/s 760 mmHg 95%

    17 Noiembrie, Sâmbătă

    Timp Temperatura Precipitaţii Vânt Presiune Umiditate
    00:00 -2°C° 0 mm 2 m/s 760 mmHg 95%
    01:00 -2°C° 0 mm 2 m/s 760 mmHg 95%
    02:00 -1°C° 0 mm 2 m/s 760 mmHg 95%
    03:00 -1°C° 0 mm 2 m/s 760 mmHg 95%
    04:00 -1°C° 0 mm 2 m/s 759 mmHg 95%
    05:00 -1°C° 0 mm 2 m/s 759 mmHg 95%
    06:00 -1°C° 0 mm 2 m/s 759 mmHg 95%
    07:00 -1°C° 0 mm 2 m/s 758 mmHg 95%
    08:00 -1°C° 0 mm 2 m/s 758 mmHg 95%
    09:00 +1°C° 0 mm 2 m/s 758 mmHg 95%
    10:00 +1°C° 0 mm 2 m/s 757 mmHg 94%
    11:00 +1°C° 0 mm 3 m/s 757 mmHg 94%
    12:00 +1°C° 0 mm 3 m/s 757 mmHg 94%
    13:00 +1°C° 0 mm 3 m/s 756 mmHg 94%
    14:00 +1°C° 0 mm 3 m/s 755 mmHg 95%
    15:00 +1°C° 0 mm 3 m/s 755 mmHg 95%
    16:00 +1°C° 0 mm 3 m/s 754 mmHg 95%
    17:00 +1°C° 0 mm 3 m/s 754 mmHg 95%
    18:00 +1°C° 0.1 mm 3 m/s 753 mmHg 95%
    19:00 +1°C° 0.1 mm 3 m/s 753 mmHg 95%
    20:00 +1°C° 0.1 mm 3 m/s 752 mmHg 95%
    21:00 +1°C° 0.1 mm 3 m/s 751 mmHg 95%
    22:00 +2°C° 0.1 mm 3 m/s 751 mmHg 96%
    23:00 +2°C° 0.1 mm 3 m/s 750 mmHg 96%

    18 Noiembrie, Duminică

    Timp Temperatura Precipitaţii Vânt Presiune Umiditate
    00:00 +2°C° 0.1 mm 3 m/s 750 mmHg 95%
    01:00 +2°C° 0.1 mm 3 m/s 750 mmHg 95%
    02:00 +2°C° 0.1 mm 3 m/s 749 mmHg 94%
    03:00 +1°C° 0 mm 3 m/s 749 mmHg 94%
    04:00 +1°C° 0 mm 3 m/s 749 mmHg 93%
    05:00 0°C° 0 mm 4 m/s 748 mmHg 93%
    06:00 0°C° 0.1 mm 4 m/s 748 mmHg 92%
    07:00 0°C° 0.1 mm 4 m/s 748 mmHg 91%
    08:00 +1°C° 0.1 mm 4 m/s 748 mmHg 90%
    09:00 +1°C° 0.1 mm 5 m/s 748 mmHg 87%
    10:00 +1°C° 0.1 mm 5 m/s 748 mmHg 84%
    11:00 +1°C° 0.1 mm 5 m/s 748 mmHg 82%
    12:00 +1°C° 0 mm 5 m/s 748 mmHg 81%
    13:00 +1°C° 0 mm 5 m/s 748 mmHg 79%
    14:00 0°C° 0 mm 5 m/s 749 mmHg 78%
    15:00 0°C° 0.1 mm 5 m/s 749 mmHg 79%
    16:00 0°C° 0.1 mm 5 m/s 749 mmHg 79%
    17:00 -1°C° 0.1 mm 5 m/s 750 mmHg 79%
    18:00 -1°C° 0 mm 5 m/s 750 mmHg 79%
    19:00 -1°C° 0 mm 5 m/s 750 mmHg 79%
    20:00 -1°C° 0 mm 5 m/s 751 mmHg 79%
    21:00 -1°C° 0 mm 5 m/s 751 mmHg 79%
    22:00 -2°C° 0 mm 5 m/s 752 mmHg 80%
    23:00 -2°C° 0 mm 5 m/s 752 mmHg 80%
    Arată mai mult